Location: Saluda
(35.2377°N, 82.3468°W)
Time: 05:32:49
(UTC+00:00)

Vanguard 2 - Pass Details

Date: 10 October 2022
Orbit: 553 x 2933 km, 32.9° (Epoch: 26 November)

Event Time Altitude Azimuth Distance (km) Brightness Sun altitude
Rises 18:49:24 0° 271° (W) 4,334 11.7 42.5°
Reaches altitude 10° 18:51:51 10° 270° (W) 3,616 11.4 42.3°
Maximum altitude 19:01:46 79° 186° (S) 2,115 10.7 41.1°
Drops below altitude 10° 19:17:50 10° 103° (ESE) 5,549 11.8 39.1°
Sets 19:22:33 0° 102° (ESE) 6,709 12.1 38.5°
